Location: Misciano
(43.5000°N, 11.9500°E)
Time: 04:20:20
(UTC+00:00)

Lacrosse 4 Rocket - Pass Details

Date: 13 August 2020
Orbit: 544 x 615 km, 68.0° (Epoch: 19 September)

Event Time Altitude Azimuth Distance (km) Brightness Sun altitude
Exits shadow 21:29:54 21° 39° (NE) 1,303 3.4 -27.2°
Drops below altitude 10° 21:31:23 10° 35° (NE) 1,875 4.3 -27.4°
Sets 21:33:35 0° 32° (NNE) 2,765 5.3 -27.5°
